Location: Bluff Heights
(33.7692°N, 118.1592°W)
Time: 06:47:07
(UTC+00:00)

ISS - Visible Passes

Search period start: 24 June 2021 00:00
Search period end: 04 July 2021 00:00
Orbit: 417 x 422 km, 51.6° (Epoch: 23 June)

Date Brightness Start Highest point End Pass type
(mag) Time Alt. Az. Time Alt. Az. Time Alt. Az.
25 Jun -3.2 11:29:21 22° SSW 11:31:12 51° SE 11:34:29 10° ENE visible
26 Jun -2.2 10:43:50 26° SE 10:43:51 26° SE 10:46:43 10° ENE visible
27 Jun -0.7 09:58:16 11° E 09:58:16 11° E 09:58:26 10° E visible
27 Jun -2.9 11:31:14 21° W 11:33:03 41° NW 11:36:16 10° NNE visible
28 Jun -3.8 10:45:35 79° NW 10:45:35 79° NW 10:48:56 10° NE visible
29 Jun -1.5 09:59:53 24° ENE 09:59:53 24° ENE 10:01:26 10° ENE visible
29 Jun -1.4 11:32:58 10° WNW 11:35:10 16° NNW 11:37:21 10° N visible
30 Jun -2.1 10:47:05 24° NW 10:47:32 24° NW 10:50:22 10° NNE visible
01 Jul -1.7 10:01:16 27° NNE 10:01:16 27° NNE 10:03:11 10° NNE visible
02 Jul -0.5 09:15:25 13° NE 09:15:25 13° NE 09:15:50 10° NE visible
02 Jul -0.9 10:48:46 10° NW 10:49:45 11° NNW 10:50:43 10° N visible
03 Jul -1.1 10:02:27 16° NNW 10:02:27 16° NNW 10:04:14 10° N visible
